User: anonymous   Login
Location: Newark
(0.5300°S, 127.4800°E)
Time: 06:21:15
(UTC+00:00)
Language:

Transit 2A - Orbit

View from above orbital plane
View from above orbital plane
View from above satellite
View from above satellite

Ground track
Ground track

The orbit data is extracted from the following two-line orbital elements,

1    45U 60007A   19256.86654802 -.00000056  00000-0  12810-4 0  9992
2    45  66.6958  32.3804 0253166 159.2921 201.8666 14.33648780 82916
Epoch (UTC): 13 September 2019 20:47:49
Eccentricity: 0.0253166
inclination: 66.6958°
perigee height: 598 km
apogee height: 961 km
right ascension of ascending node: 32.3804°
argument of perigee: 159.2921°
revolutions per day: 14.33648780
mean anomaly at epoch: 201.8666°
orbit number at epoch: 8291

The dashed part of the orbit path shows where the satellite is in the earth's shadow,  

DLR